TimeAWST,TemperatureF,Dew PointF,Humidity,Sea Level PressureIn,VisibilityMPH,Wind Direction,Wind SpeedMPH,Gust SpeedMPH,PrecipitationIn,Events,Conditions,WindDirDegrees,DateUTC
12:00 AM,75,45,24,29.95,,SE,8.1,,,,,140,2012-12-30 16:00:00
12:00 AM,75.2,44.6,34,29.95,-9999.0,SE,8.1,-,N/A,,Unknown,140,2012-12-30 16:00:00
1:00 AM,73.4,44.6,36,29.95,-9999.0,SE,8.1,-,N/A,,Unknown,130,2012-12-30 17:00:00
2:00 AM,72,44,26,29.94,,SSE,8.1,,,,,150,2012-12-30 18:00:00
2:00 AM,73.4,44.6,36,29.95,-9999.0,SSE,8.1,-,N/A,,Unknown,150,2012-12-30 18:00:00
3:00 AM,71,45,28,29.93,,South,9.2,,,,,170,2012-12-30 19:00:00
3:00 AM,71.6,44.6,38,29.95,-9999.0,South,9.2,-,N/A,,Unknown,170,2012-12-30 19:00:00
4:00 AM,68.0,44.6,43,29.95,-9999.0,SSE,8.1,-,N/A,,Unknown,150,2012-12-30 20:00:00
5:00 AM,67,47,38,29.94,,SSE,8.1,,,,,150,2012-12-30 21:00:00
5:00 AM,66.2,48.2,52,29.95,-9999.0,SSE,8.1,-,N/A,,Unknown,150,2012-12-30 21:00:00
6:00 AM,75,48,27,29.95,,SE,11.5,,,,,130,2012-12-30 22:00:00
6:00 AM,75.2,48.2,38,29.95,-9999.0,SE,11.5,-,N/A,,Unknown,130,2012-12-30 22:00:00
7:00 AM,82.4,44.6,26,29.95,-9999.0,East,16.1,-,N/A,,Unknown,80,2012-12-30 23:00:00
8:00 AM,90,36,8,29.94,,NE,15.0,,,,,50,2012-12-31 00:00:00
8:00 AM,91.4,37.4,15,29.95,-9999.0,NE,15.0,-,N/A,,Unknown,50,2012-12-31 00:00:00
9:00 AM,97,26,4,29.92,,NNE,15.0,,,,,30,2012-12-31 01:00:00
9:00 AM,96.8,26.6,8,29.92,-9999.0,NNE,15.0,-,N/A,,Unknown,30,2012-12-31 01:00:00
10:00 AM,100.4,21.2,6,29.92,-9999.0,North,17.3,-,N/A,,Unknown,360,2012-12-31 02:00:00
11:00 AM,104,20,4,29.89,,NNE,10.4,,,,,30,2012-12-31 03:00:00
11:00 AM,104.0,19.4,5,29.89,-9999.0,NNE,10.4,21.9,N/A,,Unknown,30,2012-12-31 03:00:00
12:00 PM,104,15,4,29.88,,WNW,6.9,,,,,290,2012-12-31 04:00:00
12:00 PM,104.0,14.0,4,29.89,-9999.0,WNW,6.9,-,N/A,,Unknown,290,2012-12-31 04:00:00
1:00 PM,105.8,15.8,4,29.86,-9999.0,North,12.7,-,N/A,,Unknown,350,2012-12-31 05:00:00
2:00 PM,106,16,4,29.84,,NNE,11.5,,,,,30,2012-12-31 06:00:00
2:00 PM,105.8,15.8,4,29.86,-9999.0,NNE,11.5,-,N/A,,Unknown,30,2012-12-31 06:00:00
3:00 PM,107,16,4,29.82,,NNE,6.9,,,,,20,2012-12-31 07:00:00
3:00 PM,105.8,15.8,4,29.83,-9999.0,NNE,6.9,-,N/A,,Unknown,20,2012-12-31 07:00:00
4:00 PM,105.8,15.8,4,29.83,-9999.0,NNE,8.1,-,N/A,,Unknown,30,2012-12-31 08:00:00
5:00 PM,105,15,4,29.82,,ENE,6.9,,,,,70,2012-12-31 09:00:00
5:00 PM,105.8,15.8,4,29.83,-9999.0,ENE,6.9,-,N/A,,Unknown,70,2012-12-31 09:00:00
6:00 PM,103,14,4,29.82,,North,6.9,,,,,10,2012-12-31 10:00:00
6:00 PM,102.2,14.0,4,29.83,-9999.0,North,6.9,-,N/A,,Unknown,10,2012-12-31 10:00:00
6:54 PM,93.2,15.8,6,29.83,-9999.0,NE,4.6,-,N/A,,Unknown,50,2012-12-31 10:54:00
7:00 PM,93.2,15.8,6,29.83,-9999.0,NNE,6.9,-,N/A,,Unknown,30,2012-12-31 11:00:00
7:21 PM,95.0,26.6,9,29.86,-9999.0,SE,17.3,-,N/A,,Unknown,130,2012-12-31 11:21:00
8:00 PM,90,29,5,29.87,,ESE,17.3,,,,,120,2012-12-31 12:00:00
8:00 PM,89.6,28.4,11,29.89,-9999.0,ESE,17.3,-,N/A,,Unknown,120,2012-12-31 12:00:00
9:00 PM,85,33,8,29.88,,SE,12.7,,,,,130,2012-12-31 13:00:00
9:00 PM,86.0,32.0,14,29.89,-9999.0,SE,12.7,-,N/A,,Unknown,130,2012-12-31 13:00:00
10:00 PM,82.4,33.8,17,29.89,-9999.0,ESE,13.8,-,N/A,,Unknown,120,2012-12-31 14:00:00
11:00 PM,78,36,13,29.88,,ESE,12.7,,,,,110,2012-12-31 15:00:00
11:00 PM,78.8,35.6,21,29.89,-9999.0,ESE,12.7,-,N/A,,Unknown,110,2012-12-31 15:00:00